HLE07 EGSR-EGSR

Flight info

Callsign HLE07
Flight time N/A
Altitude 1500
Route VFR NAV
Aircraft EC45/L-SDFGY/S

Departure

Time 2026-04-19 08:12
Airport Earls Colne Airfield (EGSR)

Arrival

Time N/A
Airport Earls Colne Airfield (EGSR)
Time Latitude Longitude Altitude Speed Heading
2026-04-19 08:11 51.91189 0.67670 229 ft 0 kts 219°
2026-04-19 08:11 51.91187 0.67671 248 ft 3 kts 221°
2026-04-19 08:11 51.91182 0.67573 295 ft 37 kts 252°
2026-04-19 08:12 51.91160 0.66807 435 ft 88 kts 264°
2026-04-19 08:12 51.91144 0.65312 652 ft 105 kts 272°
2026-04-19 08:12 51.90993 0.64126 805 ft 109 kts 259°
2026-04-19 08:12 51.90862 0.63313 886 ft 111 kts 259°
2026-04-19 08:13 51.90667 0.62095 1032 ft 113 kts 262°
2026-04-19 08:13 51.90469 0.60860 1190 ft 114 kts 261°
2026-04-19 08:13 51.90268 0.59622 1322 ft 116 kts 262°
2026-04-19 08:13 51.90061 0.58357 1437 ft 117 kts 262°
2026-04-19 08:14 51.89850 0.57085 1510 ft 116 kts 261°
2026-04-19 08:14 51.89417 0.54503 1514 ft 118 kts 262°
2026-04-19 08:14 51.89184 0.53245 1506 ft 117 kts 257°
2026-04-19 08:15 51.88899 0.51998 1509 ft 119 kts 256°
2026-04-19 08:15 51.88616 0.50743 1507 ft 122 kts 257°
2026-04-19 08:15 51.88324 0.49469 1515 ft 118 kts 257°
2026-04-19 08:15 51.88035 0.48227 1495 ft 118 kts 257°
2026-04-19 08:16 51.87784 0.46969 1494 ft 119 kts 260°
2026-04-19 08:16 51.87548 0.45675 1505 ft 120 kts 260°
2026-04-19 08:16 51.87317 0.44379 1507 ft 119 kts 260°
2026-04-19 08:16 51.87092 0.43112 1503 ft 117 kts 261°
2026-04-19 08:17 51.86869 0.41826 1509 ft 118 kts 261°
2026-04-19 08:17 51.86661 0.40557 1505 ft 118 kts 261°
2026-04-19 08:17 51.86453 0.39277 1505 ft 116 kts 261°
2026-04-19 08:17 51.86236 0.38007 1508 ft 116 kts 261°
2026-04-19 08:18 51.86018 0.36741 1506 ft 116 kts 261°
2026-04-19 08:18 51.85800 0.35489 1508 ft 115 kts 261°
2026-04-19 08:18 51.85579 0.34244 1510 ft 115 kts 261°
2026-04-19 08:18 51.85359 0.32993 1506 ft 118 kts 261°
2026-04-19 08:19 51.85139 0.31720 1514 ft 117 kts 261°
2026-04-19 08:19 51.84920 0.30455 1476 ft 116 kts 260°
2026-04-19 08:19 51.84701 0.29214 1261 ft 115 kts 260°
2026-04-19 08:19 51.84486 0.27990 1067 ft 113 kts 260°
2026-04-19 08:20 51.84277 0.26758 957 ft 113 kts 261°
2026-04-19 08:20 51.84064 0.25538 890 ft 112 kts 261°
2026-04-19 08:20 51.83850 0.24305 891 ft 116 kts 262°
2026-04-19 08:20 51.83710 0.23065 900 ft 112 kts 269°
2026-04-19 08:21 51.83594 0.21829 902 ft 112 kts 268°
2026-04-19 08:21 51.83467 0.20546 904 ft 116 kts 266°
2026-04-19 08:21 51.83320 0.19274 926 ft 113 kts 267°
2026-04-19 08:21 51.83134 0.18329 829 ft 103 kts 258°
2026-04-19 08:22 51.83025 0.17849 603 ft 89 kts 261°
2026-04-19 08:22 51.82923 0.17214 507 ft 30 kts 336°
2026-04-19 08:22 51.83053 0.17247 418 ft 11 kts 12°
2026-04-19 08:22 51.83130 0.17350 392 ft 13 kts 14°
2026-04-19 08:23 51.83169 0.17381 308 ft 3 kts 15°
2026-04-19 08:23 51.83167 0.17372 292 ft 3 kts 16°
2026-04-19 08:23 51.83166 0.17370 300 ft 1 kts 16°
2026-04-19 08:24 51.83166 0.17371 301 ft 0 kts 16°
2026-04-19 08:24 51.83166 0.17370 301 ft 0 kts 16°
2026-04-19 08:26 51.83166 0.17371 301 ft 0 kts 16°
2026-04-19 08:26 51.83166 0.17370 302 ft 0 kts 16°
2026-04-19 08:26 51.83166 0.17371 301 ft 0 kts 16°
2026-04-19 08:27 51.83166 0.17370 301 ft 0 kts 16°
2026-04-19 08:27 51.83166 0.17371 301 ft 0 kts 16°
2026-04-19 08:27 51.83167 0.17370 300 ft 0 kts 16°
2026-04-19 08:28 51.83166 0.17371 300 ft 0 kts 16°
2026-04-19 08:28 51.83166 0.17370 300 ft 0 kts 16°
2026-04-19 08:28 51.83167 0.17370 306 ft 0 kts 16°
2026-04-19 08:29 51.83167 0.17369 304 ft 0 kts 16°
2026-04-19 08:29 51.83167 0.17370 301 ft 0 kts 16°
2026-04-19 08:29 51.83167 0.17369 302 ft 0 kts 16°
2026-04-19 08:30 51.83167 0.17370 301 ft 0 kts 16°
2026-04-19 08:30 51.83167 0.17369 303 ft 0 kts 16°
2026-04-19 08:31 51.83167 0.17370 302 ft 0 kts 16°
2026-04-19 08:33 51.83163 0.17361 403 ft 8 kts 307°
2026-04-19 08:34 51.82919 0.17022 597 ft 82 kts 226°
2026-04-19 08:34 51.82361 0.16255 478 ft 117 kts 217°
2026-04-19 08:34 51.81674 0.15530 564 ft 116 kts 218°
2026-04-19 08:34 51.80989 0.14798 653 ft 116 kts 218°
2026-04-19 08:35 51.80309 0.14180 741 ft 116 kts 213°
2026-04-19 08:35 51.79612 0.13525 868 ft 116 kts 216°
2026-04-19 08:35 51.78902 0.12888 1018 ft 117 kts 213°
2026-04-19 08:35 51.78207 0.12234 1074 ft 116 kts 214°
2026-04-19 08:36 51.77478 0.11559 1058 ft 124 kts 213°
2026-04-19 08:36 51.76753 0.10876 1056 ft 117 kts 214°
2026-04-19 08:36 51.76048 0.10214 1045 ft 118 kts 214°
2026-04-19 08:36 51.75357 0.09578 1041 ft 115 kts 213°
2026-04-19 08:37 51.74670 0.08893 1040 ft 115 kts 222°
2026-04-19 08:37 51.74144 0.07946 1033 ft 111 kts 243°
2026-04-19 08:37 51.73852 0.06809 1035 ft 109 kts 261°
2026-04-19 08:37 51.73709 0.05631 1030 ft 106 kts 265°
2026-04-19 08:38 51.73592 0.04425 1033 ft 110 kts 266°
2026-04-19 08:38 51.73476 0.03225 1032 ft 106 kts 266°
2026-04-19 08:38 51.73360 0.02037 1030 ft 109 kts 265°
2026-04-19 08:38 51.73242 0.00839 1032 ft 108 kts 266°
2026-04-19 08:39 51.73080 -0.00339 1016 ft 110 kts 259°
2026-04-19 08:39 51.72859 -0.01512 1008 ft 110 kts 258°
2026-04-19 08:39 51.72623 -0.02702 1008 ft 113 kts 258°
2026-04-19 08:39 51.72377 -0.03912 1013 ft 113 kts 257°
2026-04-19 08:40 51.72140 -0.05083 1007 ft 109 kts 258°
2026-04-19 08:40 51.71910 -0.06256 1005 ft 114 kts 258°
2026-04-19 08:40 51.71686 -0.07462 1012 ft 110 kts 258°
2026-04-19 08:40 51.71456 -0.08642 1016 ft 108 kts 258°
2026-04-19 08:41 51.71215 -0.09821 1017 ft 110 kts 257°
2026-04-19 08:41 51.70967 -0.10991 1010 ft 110 kts 258°
2026-04-19 08:41 51.70722 -0.12127 1006 ft 110 kts 256°
2026-04-19 08:41 51.70479 -0.13303 1037 ft 110 kts 257°
2026-04-19 08:42 51.70229 -0.14495 1056 ft 114 kts 258°
2026-04-19 08:42 51.69965 -0.15692 1067 ft 111 kts 253°
2026-04-19 08:42 51.69558 -0.16754 1059 ft 113 kts 238°
2026-04-19 08:42 51.69071 -0.17794 1065 ft 118 kts 238°
2026-04-19 08:43 51.68583 -0.18819 1067 ft 113 kts 238°
2026-04-19 08:43 51.68114 -0.19820 1062 ft 114 kts 242°
2026-04-19 08:43 51.67593 -0.20800 1062 ft 117 kts 234°
2026-04-19 08:43 51.67027 -0.21756 1070 ft 116 kts 229°
2026-04-19 08:44 51.66411 -0.22577 1065 ft 115 kts 223°
2026-04-19 08:44 51.65734 -0.23334 1060 ft 120 kts 220°
2026-04-19 08:44 51.65094 -0.24131 1062 ft 113 kts 239°
2026-04-19 08:44 51.64707 -0.25181 1062 ft 114 kts 237°
2026-04-19 08:45 51.64238 -0.26224 1065 ft 115 kts 249°
2026-04-19 08:45 51.63818 -0.27331 1087 ft 115 kts 245°
2026-04-19 08:45 51.63421 -0.28454 1094 ft 114 kts 247°
2026-04-19 08:45 51.63162 -0.29521 1081 ft 83 kts 267°
2026-04-19 08:46 51.63069 -0.30250 877 ft 47 kts 295°
2026-04-19 08:46 51.63136 -0.30533 627 ft 14 kts 309°
2026-04-19 08:46 51.63181 -0.30714 499 ft 18 kts 250°
2026-04-19 08:46 51.63166 -0.30828 459 ft 4 kts 257°
2026-04-19 08:47 51.63164 -0.30839 458 ft 0 kts 253°